Location: Ferchesar
(52.6477°N, 12.4298°E)
Time: 01:02:46
(UTC+01:00)

Transit 2A Rocket - Pass Details

Date: 07 December 2021
Orbit: 584 x 918 km, 66.7° (Epoch: 21 January)

Event Time Altitude Azimuth Distance (km) Brightness Sun altitude
Rises 06:56:50 0° 198° (SSW) 3,349 8.4 -9.9°
Reaches altitude 10° 06:59:16 10° 193° (SSW) 2,463 7.8 -9.6°
Maximum altitude 07:04:48 51° 119° (ESE) 1,106 6.4 -8.8°
Drops below altitude 10° 07:10:41 10° 46° (NE) 2,610 8.0 -8.0°
Sets 07:13:19 0° 41° (NE) 3,566 8.6 -7.7°
